{"data":{"norad_id":59043,"intl_designator":"2024-038W","name":"STARLINK-31234","alt_names":[],"object_type":"PAYLOAD","status":"ACTIVE","operator":null,"country":"US","launch_date":"2024-02-25","launch_site_code":"AFETR","launch_vehicle":null,"mission":null,"orbit_class":"UNKNOWN","rcs_meters":null,"size_class":null,"mass_kg":null,"dimensions":null,"purposes":["comms"],"wikipedia_slug":null,"has_3d_model":false,"image_url":null,"decayed_at":null,"tle_current":{"epoch":"2026-05-24T17:13:39.313632Z","epoch_age_seconds":92755,"freshness":"FRESH","line1":"1 59043U 24038W   26144.71781613 -.00001209  00000+0 -34435-4 0  9995","line2":"2 59043  43.0030 314.3813 0000729 282.8197  77.2573 15.27585671126312","mean_motion":15.27585671,"eccentricity":7.29e-5,"inclination_deg":43.003,"raan_deg":314.3813,"arg_perigee_deg":282.8197,"mean_anomaly_deg":77.2573,"bstar":-3.4435e-5,"rev_number":12631,"period_min":94.266398758332,"perigee_km":482.53193584957,"apogee_km":483.53229430654,"semimajor_km":6861.1691150781,"source":"CELESTRAK","updated_at":"2026-05-25T13:38:18.826565Z"}}}